Location: Farleigh
(51.3167°N, 0.0333°W)
Time: 05:46:42
(UTC+00:00)

Daily predictions for brighter satellites

Satellite Brightness Start Highest point End
(mag) Time Altitude Azimuth Time Altitude Azimuth Time Altitude Azimuth
Landsat 5 4.2 00:01:37 10° N 00:05:13 40° WNW 00:07:02 23° WSW
EO 1 Delta rocket 3.9 00:04:08 33° S 00:06:16 75° W 00:11:26 10° NNW
Cosmos 2227 Rocket 2.2 00:00:39 10° NNW 00:06:20 77° WSW 00:09:27 28° SSE
Gbstr 26 Del rocket 4.3 00:01:09 10° WNW 00:06:26 42° SSW 00:09:36 25° SSE
Cosmos 468 4.5 00:03:21 10° NNW 00:08:43 89° ENE 00:11:38 28° SSE
GEOS 3 Rocket 3.6 00:08:34 10° NE 00:13:52 86° SE 00:17:32 21° SW
Cosmos 1441 Rocket 2.8 00:20:22 49° S 00:21:13 87° E 00:24:41 10° NNE
Meteor 2-2 Rocket 4.2 00:19:07 10° NNW 00:24:47 86° ENE 00:28:00 27° SSE
Cosmos 2221 4.1 00:21:48 10° N 00:25:31 28° ENE 00:28:33 13° SE
Cosmos 1315 Rocket 2.9 00:25:22 10° NNW 00:29:09 59° W 00:30:17 40° SSW
Cosmos 1655 Rocket 4.2 00:25:42 25° SSW 00:29:35 70° WNW 00:35:59 10° N
Okean 1 4.4 00:26:37 10° N 00:30:06 35° ENE 00:32:02 21° SE
Cosmos 1125 Rocket 3.6 00:30:24 31° S 00:32:57 68° ESE 00:38:11 10° NNE
Meteor 1-26 Rocket 4.1 00:28:19 10° NNW 00:33:44 90° ENE 00:36:44 28° SSE
Geosat 4.0 00:29:07 10° NE 00:34:08 69° ESE 00:36:36 30° SSW
Cosmos 1932 4.5 00:31:36 26° SSW 00:35:17 70° SE 00:41:39 10° NE
Cosmos 1933 4.2 00:32:05 10° NNW 00:35:37 34° W 00:36:43 28° SW
Nadezhda 1 Rocket 4.4 00:30:09 10° N 00:36:19 58° ENE 00:40:50 18° SSE
Cosmos 2058 Rocket 3.4 00:37:59 10° NNW 00:42:18 52° W 00:44:04 32° SSW
H-2A R/B 2.8 00:41:17 25° SE 00:43:18 55° ENE 00:47:09 10° N
BlueWalker 3 4.1 00:42:12 10° W 00:42:46 12° WSW 00:42:46 12° WSW
Cosmos 614 Rocket 3.9 00:41:07 10° NNW 00:46:11 75° WSW 00:48:55 27° SSE
ATLAS 5 CENTAUR R/B 3.1 00:45:25 10° NW 00:49:18 38° NE 00:54:00 10° ESE
BREEZE-M DEB (TANK) 3.3 00:48:29 10° W 00:50:49 26° WSW 00:50:49 26° WSW
CZ-4C R/B 4.3 00:48:33 10° WNW 00:53:04 29° N 00:58:41 10° NE
Cosmos 2263 Rocket 2.2 00:49:53 10° NW 00:55:28 63° WSW 00:58:41 25° S
CZ-2C R/B 2.9 00:56:46 10° NNE 01:01:33 75° ESE 01:04:01 28° S
Cosmos 2082 3.6 00:56:24 10° NNW 01:02:07 83° WSW 01:06:25 18° SSE
Cosmos 192 4.4 01:00:29 29° S 01:02:58 71° ESE 01:07:53 10° NNE
USA 32 4.1 01:00:07 26° S 01:03:08 72° E 01:08:21 10° N
Cosmos 2369 4.0 01:01:32 26° S 01:04:37 55° ESE 01:10:08 10° NE
Cosmos 1602 Rocket 3.7 01:07:34 28° S 01:09:43 66° E 01:14:03 10° NNE
Cosmos 2298 Rocket 4.3 01:07:44 26° S 01:10:40 59° ESE 01:15:54 10° NNE
Cosmos 1758 Rocket 3.5 01:09:37 30° SSW 01:11:45 84° WNW 01:16:14 10° N
Cosmos 1626 Rocket 3.7 01:11:27 29° SSW 01:13:32 66° WNW 01:17:57 10° N
Cosmos 2297 Rocket 4.2 01:14:37 10° WNW 01:16:34 12° W 01:18:18 10° WSW
SL-16 R/B 3.5 01:13:38 15° SSE 01:17:14 29° ESE 01:22:00 10° NE
Cosmos 2219 3.4 01:11:57 10° NW 01:17:29 52° WSW 01:20:47 23° S
USA 290 2.9 01:16:02 10° NW 01:19:06 36° WSW 01:19:34 34° SW
Cosmos 2333 Rocket 4.1 01:15:44 10° SE 01:19:42 20° E 01:23:40 10° NE
BREEZE M DEB (TANK) 2.0 01:21:29 41° WSW 01:22:04 54° S 01:25:38 10° ESE
Spot 2 3.8 01:20:18 25° SSE 01:22:37 88° W 01:26:38 10° NNW
BREEZE-M DEB 4.5 01:04:00 10° W 01:22:40 79° S 01:27:05 10° E
ATLAS 2AS CENTAUR R/B 2.8 01:17:19 10° NW 01:23:50 52° WSW 01:29:12 15° SSE
Cosmos 921 Rocket 3.1 01:24:24 10° NNW 01:28:47 62° WSW 01:31:10 25° S
Cosmos 1980 Rocket 2.4 01:25:56 21° SW 01:29:44 69° WNW 01:35:23 10° NNE
Cosmos 1743 3.8 01:28:38 17° SE 01:30:32 30° E 01:33:30 10° NNE
USA 215 4.3 01:30:25 21° SSW 01:32:17 24° SW 01:37:22 10° WNW
NPP 4.3 01:28:15 10° NNE 01:33:29 47° E 01:37:31 16° SSE
Cosmos 1697 Rocket 3.9 01:30:08 11° WSW 01:35:13 36° NW 01:40:28 10° NNE
Lacrosse 5 rocket 2.3 01:33:59 10° WNW 01:37:12 25° SW 01:37:12 25° SW
Cosmos 2151 2.9 01:35:22 26° S 01:37:39 86° ESE 01:41:49 10° NNE
Cosmos 1140 Rocket 4.0 01:35:30 10° NNW 01:40:37 61° ENE 01:45:44 10° SE
CZ-2C R/B 3.4 01:37:53 22° SSW 01:40:58 39° W 01:46:13 10° NNW
Resurs 1-4 Rocket 3.5 01:38:45 10° NNE 01:43:27 31° E 01:48:08 10° SSE
GENESIS II 3.4 01:44:58 33° WSW 01:45:57 65° NW 01:48:41 10° NE
Cosmos 1076 Rocket 4.2 01:46:03 16° SSE 01:49:12 48° E 01:53:17 10° NNE
Cosmos 2227 Rocket 4.0 01:46:29 10° WNW 01:49:25 14° W 01:51:13 13° WSW
Landsat 4 3.9 01:49:58 28° WSW 01:50:24 29° W 01:52:55 10° NW
Cosmos 1844 Rocket 2.7 01:45:46 10° NNW 01:51:27 84° ENE 01:57:04 10° SSE
Cosmos 1238 Rocket 3.6 01:48:26 10° NNW 01:53:33 57° W 01:56:48 20° SSW
Cosmos 2227 4.2 01:49:52 10° NNW 01:55:33 76° WSW 02:01:15 10° SSE
Cosmos 1844 3.8 01:50:03 10° NNW 01:55:46 83° ENE 02:01:32 10° SSE
CZ-2D R/B 3.3 01:52:17 10° NNE 01:57:06 36° E 02:01:51 10° SSE
IDEFIX/ARIANE 42P 2.6 01:53:03 10° NNE 01:58:16 85° ESE 02:02:09 18° SSW
Meteor 1-19 Rocket 4.2 01:54:14 10° NNW 01:59:42 70° W 02:04:33 14° S
H-2A R/B 2.7 01:57:51 10° NNE 02:01:58 47° E 02:05:29 14° S
Cosmos 2237 4.2 01:58:13 19° SSW 02:02:22 82° ESE 02:08:06 10° NNE
Cosmos 2221 3.3 01:58:48 10° NNW 02:02:40 34° W 02:04:55 20° SW
Cosmos 1953 Rocket 3.6 02:04:16 17° S 02:07:32 77° E 02:11:52 10° NNE
Cosmos 2360 Rocket 3.3 02:03:04 11° S 02:07:54 35° ESE 02:12:57 10° NE
SeaSat 1 2.4 02:03:51 10° SSE 02:08:46 89° ENE 02:13:42 10° NNW
Cosmos 1346 Rocket 2.6 02:09:59 21° SSW 02:12:21 75° WNW 02:16:04 10° N
Cosmos 2278 3.9 02:08:06 17° SSW 02:12:30 68° ESE 02:18:08 10° NE
Cosmos 1733 3.0 02:14:22 17° S 02:16:27 57° E 02:19:24 10° NNE
H-2A R/B 4.1 02:16:38 14° WSW 02:17:59 16° W 02:20:27 10° NW
Cosmos 1269 Rocket 4.2 02:12:52 10° NNW 02:18:04 56° WSW 02:23:13 10° S
Molniya-1 4.2 02:19:20 18° SSW 02:21:57 67° SE 02:30:38 10° NE
Cosmos 2219 Rocket 3.8 02:18:04 10° SSE 02:22:42 27° ESE 02:27:20 10° NE
H-2A R/B 4.3 02:21:20 10° NE 02:24:36 18° E 02:27:51 10° SE
Cosmos 1825 Rocket 4.1 02:22:59 17° SW 02:26:06 44° WNW 02:30:20 10° N
Cosmos 2074 Rocket 4.3 02:20:01 10° S 02:26:08 66° E 02:32:19 10° NNE
CENTAUR R/B 2.8 02:24:36 15° SSW 02:29:20 60° SE 02:36:18 10° NE
Cosmos 2322 Rocket 2.6 02:24:50 12° S 02:29:52 58° ESE 02:35:23 10° NE
ADEOS II 2.9 02:24:58 10° NNE 02:30:04 48° E 02:35:07 10° S
ATLAS 5 CENTAUR R/B 2.0 02:27:56 10° NW 02:32:15 50° SW 02:37:33 10° SSE
ALOS 3.0 02:28:09 10° NNE 02:32:36 48° E 02:37:01 10° S
MOZ.5/SAFIR/RUBIN 5/SL-8 4.3 02:30:29 14° SSW 02:34:11 39° W 02:38:36 10° NNW
Meteor 1-18 Rocket 4.5 02:32:24 10° N 02:37:58 72° ENE 02:43:31 10° SSE
Cosmos 2263 Rocket 4.1 02:36:47 10° W 02:38:12 11° W 02:39:38 10° WSW
Cosmos 2251 Rocket 4.0 02:32:55 10° NNW 02:38:14 65° ENE 02:43:27 10° SE
Meteor 1-25 Rocket 4.4 02:36:57 13° SSW 02:41:59 63° WNW 02:47:41 10° N
NOSS 3-2 (A) 4.3 02:37:52 10° S 02:42:27 35° ESE 02:47:50 10° NE
Envisat 3.6 02:38:51 10° NNE 02:43:51 53° E 02:48:47 10° S
DMSP B5D2-2 4.4 02:38:47 10° SSE 02:43:59 71° ENE 02:49:12 10° N
Meteor 1-27 Rocket 4.2 02:39:57 10° NNW 02:45:36 46° W 02:51:11 10° SSW
SL-23 DEB 3.3 02:42:35 11° WSW 02:45:36 73° SSE 02:49:16 10° E
SAR-Lupe-3 4.4 02:44:40 10° SSE 02:47:36 68° ENE 02:50:33 10° N
MSX 4.3 02:42:40 10° N 02:48:10 48° WNW 02:53:28 11° SW
Cosmos 1190 Rocket 4.4 02:46:44 10° NNW 02:51:55 66° ENE 02:57:04 10° SE
Cosmos 2181 Rocket 4.3 02:46:44 10° NNW 02:52:36 48° W 02:58:25 10° SSW
USA 276 2.4 02:51:56 14° SW 02:53:55 34° SSE 02:56:16 10° E
NOAA 11 4.4 02:48:28 10° NNE 02:53:57 76° ESE 02:59:22 10° S
FENGYUN 3A 4.0 02:49:35 10° N 02:54:53 57° WNW 03:00:10 10° SW
SL-16 R/B 2.9 02:50:28 10° SSE 02:56:41 74° ENE 03:02:58 10° NNW
Cosmos 1842 Rocket 4.3 02:55:37 10° NNW 02:59:38 35° W 03:03:36 10° SSW
SL-16 R/B 2.5 02:55:28 10° SW 03:00:58 60° NW 03:06:36 10° NNE
Uosat 12 SS-18 rocket 4.4 02:57:37 10° SSW 03:01:50 68° SE 03:06:43 10° NE
Cosmos 1707 3.2 02:59:32 10° NNW 03:02:29 31° W 03:05:25 10° SSW
Cosmos 2333 Rocket 2.3 02:57:35 10° SSW 03:03:18 83° WNW 03:09:01 10° NNE
Cosmos 1805 4.2 03:00:13 10° SSE 03:03:27 38° E 03:06:43 10° NNE
Cosmos 1743 4.1 03:02:04 10° WSW 03:04:38 20° WNW 03:07:12 10° NNW
Cosmos 44 Rocket 3.4 03:03:49 10° SW 03:08:28 66° NW 03:13:15 10° NE
Meteor 2-4 Rocket 4.0 03:03:32 10° NNW 03:08:38 46° W 03:13:43 10° SSW
ATLAS 2AS CENTAUR R/B 4.4 03:11:41 10° W 03:13:10 11° WSW 03:14:38 10° WSW
Cosmos 1980 Rocket 4.2 03:10:45 10° W 03:14:48 20° NNW 03:18:53 10° NNE
Cosmos 1066 Rocket 4.2 03:11:06 10° NNW 03:16:23 60° W 03:21:38 10° S
CZ-2C R/B 4.2 03:15:55 10° NNE 03:20:24 31° E 03:24:56 10° SSE
Cosmos 1842 4.3 03:19:23 10° NW 03:22:06 22° W 03:24:47 10° SW
Resurs 1-4 Rocket 2.6 03:18:20 10° N 03:23:25 47° WNW 03:28:29 10° SW
Nadezhda 3 Rocket 4.2 03:17:56 10° NNW 03:23:58 54° W 03:29:55 10° SSW
AQUA 3.9 03:19:38 10° NNE 03:24:23 83° ESE 03:29:05 10° SSW
